When you browse on this site, cookies collect data to enhance your experience and personalize the content and advertising you see.
Visit our Privacy Policy to learn more. By continuing to use the site, you agree to this use of cookies and data.
  • In Hungary
  • List of Countries
  • For 7 days
  • Water Temperature
  • Satellite Maps
  • Weather Map
  • News
  • Weather Widgets
  • user-avatar
    Login

    Hourly Weather Hertogenbosch

    Today, 16 January, Wednesday

    Time Temperature Precipitation Wind Pressure Humidity
    00:00 +5°C° 0 mm 6 mps 760 mmHg 87%
    01:00 +5°C° 0.1 mm 6 mps 759 mmHg 86%
    02:00 +5°C° 0.1 mm 6 mps 759 mmHg 85%
    03:00 +5°C° 0.1 mm 7 mps 758 mmHg 84%
    04:00 +5°C° 0 mm 7 mps 758 mmHg 83%
    05:00 +4°C° 0 mm 7 mps 758 mmHg 82%
    06:00 +4°C° 0 mm 7 mps 757 mmHg 80%
    07:00 +4°C° 0 mm 7 mps 757 mmHg 80%
    08:00 +4°C° 0 mm 7 mps 757 mmHg 79%
    09:00 +3°C° 0 mm 7 mps 756 mmHg 78%
    10:00 +4°C° 0 mm 7 mps 756 mmHg 77%
    11:00 +4°C° 0 mm 7 mps 755 mmHg 76%
    12:00 +4°C° 0 mm 7 mps 755 mmHg 75%
    13:00 +4°C° 0 mm 7 mps 754 mmHg 76%
    14:00 +4°C° 0 mm 7 mps 753 mmHg 76%
    15:00 +5°C° 0 mm 7 mps 753 mmHg 76%
    16:00 +4°C° 0.3 mm 7 mps 752 mmHg 78%
    17:00 +4°C° 0.3 mm 7 mps 751 mmHg 79%
    18:00 +4°C° 0.3 mm 8 mps 750 mmHg 80%
    19:00 +4°C° 0.3 mm 8 mps 750 mmHg 80%
    20:00 +4°C° 0.3 mm 8 mps 750 mmHg 81%
    21:00 +3°C° 0.3 mm 9 mps 750 mmHg 81%
    22:00 +4°C° 0.3 mm 7 mps 750 mmHg 80%
    23:00 +4°C° 0.3 mm 6 mps 751 mmHg 80%

    Tomorrow, 17 January, Thursday

    Time Temperature Precipitation Wind Pressure Humidity
    00:00 +5°C° 0.3 mm 5 mps 751 mmHg 79%
    01:00 +3°C° 0 mm 5 mps 751 mmHg 79%
    02:00 +3°C° 0 mm 5 mps 751 mmHg 79%
    03:00 +2°C° 0 mm 5 mps 751 mmHg 80%
    04:00 +2°C° 0.1 mm 5 mps 751 mmHg 82%
    05:00 +2°C° 0.1 mm 6 mps 751 mmHg 84%
    06:00 +2°C° 0.1 mm 6 mps 751 mmHg 86%
    07:00 +3°C° 0.4 mm 5 mps 751 mmHg 85%
    08:00 +3°C° 0.4 mm 5 mps 751 mmHg 83%
    09:00 +3°C° 0.4 mm 5 mps 752 mmHg 82%
    10:00 +3°C° 0.2 mm 5 mps 753 mmHg 74%
    11:00 +3°C° 0.2 mm 6 mps 753 mmHg 66%
    12:00 +4°C° 0.2 mm 7 mps 754 mmHg 58%
    13:00 +3°C° 0 mm 6 mps 755 mmHg 58%
    14:00 +3°C° 0 mm 6 mps 755 mmHg 58%
    15:00 +3°C° 0 mm 6 mps 756 mmHg 58%
    16:00 +2°C° 0 mm 5 mps 757 mmHg 60%
    17:00 +2°C° 0 mm 5 mps 758 mmHg 62%
    18:00 +1°C° 0 mm 4 mps 759 mmHg 64%
    19:00 +1°C° 0 mm 4 mps 759 mmHg 65%
    20:00 +1°C° 0 mm 4 mps 760 mmHg 66%
    21:00 0°C° 0 mm 4 mps 761 mmHg 66%
    22:00 +1°C° 0 mm 3 mps 761 mmHg 69%
    23:00 +1°C° 0 mm 3 mps 761 mmHg 71%

    Day after tomorrow, 18 January, Friday

    Time Temperature Precipitation Wind Pressure Humidity
    00:00 +1°C° 0 mm 3 mps 762 mmHg 73%
    01:00 +1°C° 0 mm 3 mps 762 mmHg 74%
    02:00 +1°C° 0 mm 3 mps 763 mmHg 76%
    03:00 0°C° 0 mm 3 mps 763 mmHg 77%
    04:00 +1°C° 0 mm 2 mps 763 mmHg 78%
    05:00 +1°C° 0 mm 2 mps 763 mmHg 79%
    06:00 +1°C° 0 mm 2 mps 763 mmHg 80%
    07:00 +1°C° 0 mm 2 mps 763 mmHg 80%
    08:00 +1°C° 0 mm 2 mps 764 mmHg 81%
    09:00 +2°C° 0 mm 2 mps 764 mmHg 81%
    10:00 +3°C° 0 mm 2 mps 764 mmHg 79%
    11:00 +2°C° 0 mm 3 mps 764 mmHg 77%
    12:00 +3°C° 0 mm 3 mps 764 mmHg 75%
    13:00 +4°C° 0 mm 2 mps 763 mmHg 76%
    14:00 +4°C° 0 mm 2 mps 763 mmHg 76%
    15:00 +4°C° 0 mm 2 mps 763 mmHg 77%
    16:00 +3°C° 0 mm 2 mps 763 mmHg 80%
    17:00 +2°C° 0 mm 2 mps 763 mmHg 82%
    18:00 0°C° 0 mm 3 mps 763 mmHg 85%
    19:00 0°C° 0 mm 3 mps 763 mmHg 85%
    20:00 0°C° 0 mm 3 mps 762 mmHg 84%
    21:00 -1°C° 0 mm 3 mps 762 mmHg 84%
    22:00 -1°C° 0 mm 3 mps 762 mmHg 82%
    23:00 -1°C° 0 mm 3 mps 762 mmHg 81%

    19 January, Saturday

    Time Temperature Precipitation Wind Pressure Humidity
    00:00 -1°C° 0 mm 3 mps 762 mmHg 79%
    01:00 -1°C° 0 mm 3 mps 761 mmHg 77%
    02:00 -2°C° 0 mm 4 mps 761 mmHg 76%
    03:00 -2°C° 0 mm 4 mps 760 mmHg 74%
    04:00 -2°C° 0 mm 4 mps 760 mmHg 74%
    05:00 -2°C° 0 mm 4 mps 760 mmHg 73%
    06:00 -2°C° 0 mm 4 mps 760 mmHg 73%
    07:00 -2°C° 0 mm 4 mps 760 mmHg 72%
    08:00 -1°C° 0 mm 5 mps 759 mmHg 71%
    09:00 -1°C° 0 mm 5 mps 759 mmHg 71%
    10:00 0°C° 0 mm 5 mps 759 mmHg 68%
    11:00 +1°C° 0 mm 5 mps 759 mmHg 64%
    12:00 +2°C° 0 mm 5 mps 759 mmHg 61%
    13:00 +3°C° 0 mm 4 mps 759 mmHg 63%
    14:00 +3°C° 0 mm 4 mps 758 mmHg 64%
    15:00 +3°C° 0 mm 4 mps 758 mmHg 65%
    16:00 +1°C° 0 mm 4 mps 758 mmHg 67%
    17:00 0°C° 0 mm 4 mps 759 mmHg 68%
    18:00 -1°C° 0 mm 4 mps 759 mmHg 70%
    19:00 0°C° 0 mm 3 mps 759 mmHg 71%
    20:00 -1°C° 0 mm 3 mps 759 mmHg 72%
    21:00 -1°C° 0 mm 3 mps 760 mmHg 74%
    22:00 -1°C° 0 mm 3 mps 760 mmHg 74%
    23:00 -1°C° 0 mm 3 mps 760 mmHg 75%

    20 January, Sunday

    Time Temperature Precipitation Wind Pressure Humidity
    00:00 -2°C° 0 mm 3 mps 760 mmHg 75%
    01:00 -2°C° 0 mm 3 mps 760 mmHg 75%
    02:00 -2°C° 0 mm 3 mps 760 mmHg 75%
    03:00 -2°C° 0 mm 3 mps 761 mmHg 75%
    04:00 -2°C° 0 mm 3 mps 761 mmHg 74%
    05:00 -2°C° 0 mm 3 mps 761 mmHg 73%
    06:00 -2°C° 0 mm 3 mps 762 mmHg 72%
    07:00 -2°C° 0 mm 3 mps 762 mmHg 69%
    08:00 -1°C° 0 mm 3 mps 763 mmHg 66%
    09:00 -2°C° 0 mm 4 mps 763 mmHg 63%
    10:00 0°C° 0 mm 3 mps 764 mmHg 60%
    11:00 +1°C° 0 mm 3 mps 764 mmHg 57%
    12:00 +2°C° 0 mm 3 mps 764 mmHg 55%
    13:00 +2°C° 0 mm 3 mps 764 mmHg 57%
    14:00 +2°C° 0 mm 3 mps 764 mmHg 58%
    15:00 +2°C° 0 mm 3 mps 765 mmHg 60%
    16:00 +1°C° 0 mm 3 mps 765 mmHg 63%
    17:00 0°C° 0 mm 3 mps 766 mmHg 66%
    18:00 -1°C° 0 mm 3 mps 767 mmHg 68%
    19:00 -1°C° 0 mm 3 mps 767 mmHg 70%
    20:00 -2°C° 0 mm 3 mps 768 mmHg 71%
    21:00 -2°C° 0 mm 3 mps 768 mmHg 72%
    22:00 -2°C° 0 mm 3 mps 769 mmHg 73%
    23:00 -2°C° 0 mm 3 mps 769 mmHg 74%

    21 January, Monday

    Time Temperature Precipitation Wind Pressure Humidity
    00:00 -2°C° 0 mm 3 mps 769 mmHg 75%
    01:00 -2°C° 0 mm 3 mps 770 mmHg 76%
    02:00 -2°C° 0 mm 3 mps 770 mmHg 76%
    03:00 -2°C° 0 mm 3 mps 770 mmHg 77%
    04:00 -4°C° 0 mm 3 mps 770 mmHg 77%
    05:00 -4°C° 0 mm 3 mps 771 mmHg 78%
    06:00 -4°C° 0 mm 3 mps 771 mmHg 78%
    07:00 -2°C° 0 mm 3 mps 771 mmHg 74%
    08:00 -2°C° 0 mm 3 mps 772 mmHg 70%
    09:00 -1°C° 0 mm 3 mps 772 mmHg 66%
    10:00 0°C° 0 mm 3 mps 772 mmHg 60%
    11:00 +1°C° 0 mm 3 mps 772 mmHg 54%
    12:00 +2°C° 0 mm 3 mps 771 mmHg 47%
    13:00 +3°C° 0 mm 2 mps 771 mmHg 49%
    14:00 +2°C° 0 mm 2 mps 771 mmHg 51%
    15:00 +2°C° 0 mm 2 mps 771 mmHg 53%
    16:00 +1°C° 0 mm 2 mps 771 mmHg 56%
    17:00 -1°C° 0 mm 2 mps 771 mmHg 58%
    18:00 -2°C° 0 mm 2 mps 771 mmHg 61%
    19:00 -2°C° 0 mm 2 mps 770 mmHg 62%
    20:00 -2°C° 0 mm 2 mps 770 mmHg 63%
    21:00 -3°C° 0 mm 2 mps 770 mmHg 64%
    22:00 -3°C° 0 mm 2 mps 770 mmHg 64%
    23:00 -3°C° 0 mm 2 mps 769 mmHg 64%
    Show more